Weather History for KWJF - July, 2013

Change the Weather History Date:

Monday, July 8, 2013

  Actual Average Record
Temperature  
Mean Temperature 84 °F 82 °F  
Max Temperature 104 °F 97 °F 111 °F (2008)
Min Temperature 63 °F 67 °F 51 °F (1952)
Degree Days  
Heating Degree Days 0    
Month to date heating degree days 0  
Since 1 June heating degree days 0  
Since 1 July heating degree days 0  
Cooling Degree Days 19    
Month to date cooling degree days 188  
Year to date cooling degree days 913  
Since 1 June cooling degree days 655  
Growing Degree Days 33 (Base 50)    
Moisture  
Dew Point 31 °F    
Average Humidity 19    
Maximum Humidity 34    
Minimum Humidity 4    
Precipitation  
Precipitation 0.00 in 0.00 in 0.13 in (1991)
Month to date precipitation 0.00 0.02  
Year to date precipitation 1.10 4.93  
Since 1 July precipitation 0.00 0.02  
Snow  
Snow 0.00 in - 0.00 in ()
Month to date snowfall 0.0  
Since 1 June snowfall 0.0  
Since 1 July snowfall 0.0  
Snow Depth 0.00 in    
Sea Level Pressure  
Sea Level Pressure 29.89 in    
Wind  
Wind Speed 9 mph (WSW)    
Max Wind Speed 25 mph    
Max Gust Speed 32 mph    
Visibility 10 miles    
Events      
T = Trace of Precipitation, MM = Missing Value Source: NWS Daily Summary

Daily Weather History Graph

Daily Weather History Graph

Search for Another Location

Airport or City:

Trip Planner

Search our weather history database for the weather conditions in past years. The results will help you decide how hot, cold, wet, or windy it might be!

Date:

Astronomy

Jul. 08, 2013 Rise Set
Actual Time 5:46 AM PDT 8:08 PM PDT
Civil Twilight 5:17 AM PDT 8:38 PM PDT
Nautical Twilight 4:41 AM PDT 9:13 PM PDT
Astronomical Twilight 4:02 AM PDT 9:53 PM PDT
Moon 6:16 AM PDT (7/8) 8:18 PM PDT (7/8)
Length of Visible Light 15h 20m
Length of Day
14h 21m
New Moon, 0% of the Moon is Illuminated
Jul 8
New Moon
Jul 15
First Quarter
Jul 22
Full
Jul 29
Last Quarter
Aug 6
New

Hourly Weather History & Observations

Time (PDT) Temp. Dew Point Humidity Pressure Visibility Wind Dir Wind Speed Gust Speed Precip Events Conditions
12:56 AM 77.0 °F 37.9 °F 24% 29.83 in 10.0 mi WSW 6.9 mph - N/A   Clear
1:56 AM 78.1 °F 37.0 °F 23% 29.83 in 10.0 mi SSW 4.6 mph - N/A   Clear
2:56 AM 72.0 °F 36.0 °F 27% 29.84 in 10.0 mi Calm Calm - N/A   Clear
3:56 AM 68.0 °F 35.1 °F 30% 29.85 in 10.0 mi Calm Calm - N/A   Clear
4:56 AM 66.9 °F 37.9 °F 34% 29.86 in 10.0 mi Calm Calm - N/A   Clear
5:56 AM 64.0 °F 35.1 °F 34% 29.88 in 10.0 mi Calm Calm - N/A   Clear
6:56 AM 69.1 °F 36.0 °F 30% 29.90 in 10.0 mi Calm Calm - N/A   Clear
7:56 AM 78.1 °F 37.0 °F 23% 29.91 in 10.0 mi Calm Calm - N/A   Clear
8:56 AM 88.0 °F 35.1 °F 15% 29.91 in 10.0 mi Calm Calm - N/A   Clear
9:56 AM 93.9 °F 30.9 °F 11% 29.91 in 10.0 mi Calm Calm - N/A   Clear
10:56 AM 99.0 °F 28.0 °F 8% 29.90 in 10.0 mi WSW 10.4 mph 19.6 mph N/A   Clear
11:56 AM 100.9 °F 25.0 °F 7% 29.89 in 10.0 mi SW 15.0 mph 20.7 mph N/A   Clear
12:56 PM 102.0 °F 23.0 °F 6% 29.88 in 10.0 mi WSW 12.7 mph 21.9 mph N/A   Clear
1:56 PM 102.9 °F 16.0 °F 4% 29.87 in 10.0 mi SSW 20.7 mph 24.2 mph N/A   Clear
2:56 PM 102.9 °F 25.0 °F 6% 29.87 in 10.0 mi WSW 19.6 mph 26.5 mph N/A   Clear
3:56 PM 102.9 °F 27.0 °F 7% 29.87 in 10.0 mi WSW 17.3 mph 27.6 mph N/A   Clear
4:56 PM 102.0 °F 30.0 °F 8% 29.87 in 10.0 mi WSW 19.6 mph - N/A   Clear
5:56 PM 99.0 °F 28.9 °F 8% 29.87 in 10.0 mi WSW 23.0 mph 28.8 mph N/A   Clear
6:56 PM 96.1 °F 28.9 °F 9% 29.88 in 10.0 mi WSW 19.6 mph 26.5 mph N/A   Clear
7:56 PM 91.0 °F 30.9 °F 12% 29.90 in 10.0 mi SW 13.8 mph - N/A   Clear
8:56 PM 87.1 °F 28.9 °F 12% 29.91 in 10.0 mi SW 10.4 mph - N/A   Clear
9:56 PM 84.0 °F 30.9 °F 15% 29.94 in 10.0 mi WSW 9.2 mph - N/A   Clear
10:56 PM 78.1 °F 33.1 °F 19% 29.95 in 10.0 mi West 5.8 mph - N/A   Clear
11:56 PM 73.9 °F 33.1 °F 22% 29.96 in 10.0 mi West 6.9 mph - N/A   Clear